Location: Bannatyne
(13.0833°N, 59.5333°W)
Time: 08:40:18
(UTC+00:00)

Vanguard 2 Rocket - Pass Details

Date: 26 January 2020
Orbit: 554 x 3326 km, 32.9° (Epoch: 08 April)

Event Time Altitude Azimuth Distance (km) Brightness Sun altitude
Rises 13:00:01 0° 313° (NW) 3,780 9.6 33.3°
Reaches altitude 10° 13:02:23 10° 321° (NW) 3,095 9.2 33.8°
Maximum altitude 13:09:56 43° 31° (NNE) 2,246 9.2 35.3°
Drops below altitude 10° 13:22:51 10° 98° (E) 5,228 11.7 37.8°
Sets 13:28:12 0° 104° (ESE) 6,643 12.1 38.9°
